Dewpoint
70 67 65 69 68 68 68 71 60 60 60 54 53 52 52 54 54 53 54 56 55 57 55 53 51 51 53 50 51 54 55 56 55 49 54 61 64 64 65 64 65 69 69 70 70 73 75 76 76 76 76 76 75 75 75 75 76 76 75 74 75 75 74 75 75 75 74 74 75 75 75 75 75 75 75 76 75 75 75 75 75 75 75 75 75 75 74 74 74 74 74 74 74 75 76 75 75
66 65 67 66 68 69 66 67 60 58 56 55 53 54 53 53 51 51 52 55 54 52 51 51 55 59 58 55 51 52 54 55 57 58 59 60 62 64 64 65 65 66 70 68 69 68 72 76 75 75 75 75 75 75 75 76 76 75 75 74 74 74 74 74 74 74 74 74 74 75 75 75 75 75 75 75 76 75 75 75 76 76 75 75 75 74 74 74 74 74 74 74 74 74 76 75 75
65 66 65 67 68 66 66 67 56 55 52 52 53 53 54 50 51 54 56 54 50 50 52 55 56 55 53 54 49 51 55 57 57 58 60 62 63 64 63 64 66 66 67 68 67 65 72 75 74 74 74 74 75 75 75 75 75 75 75 74 74 74 74 73 73 74 74 74 75 75 75 75 75 75 75 75 75 75 75 75 75 75 75 74 74 74 74 73 73 74 74 74 74 74 74 75 75
70 66 66 73 69 67 62 64 59 55 52 53 53 55 53 53 54 55 54 53 51 52 52 55 53 58 57 51 52 53 53 56 58 58 61 61 63 63 63 65 68 66 67 67 64 66 73 74 74 74 74 74 74 75 75 75 75 75 75 74 74 74 74 74 74 74 74 74 74 74 75 74 74 75 75 75 75 75 75 75 75 75 74 74 74 74 73 73 74 75 75 75 75 75 74 74 75
69 67 67 71 68 62 61 59 62 57 54 53 54 55 55 55 55 54 52 52 54 54 56 56 56 58 58 57 54 54 53 55 56 58 59 61 61 63 65 66 66 66 66 64 63 72 73 74 73 73 73 73 74 75 75 75 74 74 74 75 74 74 74 74 74 75 75 74 74 74 74 74 74 74 74 75 75 75 74 75 75 75 75 74 74 74 75 75 76 75 75 75 74 74 74 75 74
68 66 66 69 65 70 63 59 56 56 55 55 55 55 56 56 55 52 52 54 58 56 58 58 53 52 54 53 54 51 52 53 56 58 59 60 62 63 65 66 65 65 65 64 65 73 73 74 74 74 73 72 74 75 75 74 74 74 75 75 75 75 75 75 75 74 74 74 74 74 74 74 74 75 75 75 75 74 75 75 75 75 75 75 76 75 75 75 75 75 75 74 75 75 75 75 75
70 73 73 71 67 66 59 58 58 57 58 58 56 57 58 56 54 53 53 55 56 57 56 54 52 51 52 55 56 56 55 56 57 58 59 61 63 64 65 65 66 65 65 64 68 74 74 74 74 74 74 74 75 74 74 74 74 74 75 74 74 74 74 74 74 74 74 74 74 74 74 74 74 74 75 75 74 74 75 75 75 75 75 75 75 74 75 75 75 75 75 75 74 75 75 75 75
66 63 68 65 61 62 60 59 58 56 59 59 59 58 59 57 54 55 55 54 54 57 55 52 52 53 52 54 54 54 56 56 58 59 61 61 63 64 65 65 64 65 66 66 71 75 77 75 74 74 74 74 74 74 74 74 74 75 75 75 74 74 74 74 74 74 74 74 74 74 74 74 74 74 74 74 74 74 75 75 75 75 74 74 74 74 75 75 74 74 74 75 74 74 74 74 75
67 69 69 63 60 62 59 59 59 59 60 61 60 63 61 57 56 56 56 57 55 56 54 52 50 51 52 53 55 58 58 57 58 61 61 61 63 64 64 64 64 65 64 62 70 73 74 75 75 75 74 74 74 75 74 75 75 75 75 75 75 74 74 74 74 74 74 74 74 74 74 74 74 74 74 74 74 74 75 75 75 74 74 74 74 75 75 75 75 74 74 74 74 74 75 75 75
65 67 63 61 63 57 58 58 59 60 59 61 62 62 59 58 57 57 57 57 58 56 57 54 54 54 54 54 56 57 57 57 57 58 60 61 63 64 63 63 64 63 61 62 71 73 73 76 75 75 74 74 74 74 74 74 74 74 75 74 74 74 74 74 74 74 74 74 74 74 74 74 74 74 74 74 74 74 74 74 74 74 75 75 75 74 74 75 75 76 75 74 75 75 74 74 75
63 66 68 60 58 58 57 59 56 61 60 61 63 63 61 58 57 57 58 59 58 57 55 53 51 49 50 52 55 58 57 56 56 57 60 62 64 64 62 64 63 64 63 62 70 73 73 74 76 74 74 75 75 74 74 75 74 75 75 74 74 74 74 75 74 74 74 74 74 74 74 74 74 74 74 74 74 74 74 74 74 74 74 75 74 74 75 75 75 75 75 74 74 75 74 75 75
60 63 64 57 58 58 56 58 59 60 60 62 60 63 62 60 59 57 58 58 58 56 55 52 49 51 53 54 55 56 55 55 55 57 59 62 63 62 63 62 63 64 64 64 70 73 73 73 74 75 75 74 74 74 75 74 74 74 74 74 74 74 74 74 74 74 74 74 74 74 74 74 74 73 74 74 74 74 74 74 74 75 75 75 74 74 74 74 75 75 75 75 74 74 75 75 75
61 63 63 59 60 61 61 58 58 60 61 60 61 63 63 64 61 58 58 59 57 54 55 56 51 51 50 52 55 53 54 55 56 57 59 61 61 61 61 62 64 64 66 68 70 72 73 74 73 74 74 75 75 75 74 74 74 74 74 73 74 74 74 74 74 74 74 74 74 74 74 74 74 74 74 74 74 74 74 74 74 74 75 75 74 74 74 74 75 75 75 75 76 74 74 75 75
62 61 60 58 59 58 60 57 60 57 59 61 63 65 64 63 62 60 58 58 57 58 55 51 50 52 53 52 53 52 53 55 56 57 59 61 61 60 61 63 64 65 66 66 70 70 73 75 74 73 74 75 74 74 74 74 74 74 74 74 74 74 74 74 74 74 74 74 74 74 74 74 74 74 74 73 74 74 74 74 74 74 74 74 74 74 73 75 75 75 75 74 75 74 74 75 75
61 63 61 62 61 57 58 59 56 58 58 63 64 63 63 63 63 62 61 58 60 58 55 55 53 51 50 50 50 52 54 55 56 58 59 60 61 61 63 64 65 65 64 62 63 73 73 74 73 73 75 75 75 74 75 74 74 73 74 75 74 74 74 75 75 74 74 74 74 74 74 74 74 74 74 74 74 74 74 74 75 74 74 74 75 74 73 74 74 74 74 74 74 74 74 75 75
65 64 62 59 55 56 58 58 58 59 59 61 64 63 63 64 63 61 62 62 59 56 55 52 53 57 48 49 51 54 54 55 57 59 60 60 63 62 64 65 65 65 64 63 67 68 73 74 73 74 74 75 75 74 75 75 74 74 74 75 74 74 74 74 74 74 74 74 74 74 74 74 74 72 74 73 75 75 74 74 75 73 74 73 74 74 74 74 74 74 74 73 73 75 75 75 74
64 63 59 62 55 57 59 60 55 58 62 62 64 64 62 62 64 64 66 63 57 56 58 54 56 49 49 50 54 55 55 57 60 59 60 62 63 63 64 65 66 66 64 65 71 68 73 74 73 73 74 74 74 74 74 75 74 74 74 74 74 74 75 74 74 74 74 74 75 74 74 74 75 74 74 73 74 75 75 75 75 74 74 74 74 73 73 74 74 74 74 73 73 75 75 75 74
61 62 62 56 61 60 61 59 60 59 60 63 65 64 64 62 64 64 64 60 61 58 57 56 51 50 52 54 56 56 57 59 59 59 60 61 62 62 62 64 64 64 64 65 69 68 72 74 74 73 74 75 74 74 74 74 74 74 74 75 75 74 74 74 74 75 74 75 75 75 74 74 73 74 74 74 75 75 74 75 74 75 74 74 75 74 74 74 74 74 74 73 73 75 75 73 74
60 58 60 55 61 61 64 61 61 60 60 63 63 63 64 64 65 64 61 60 59 57 55 53 51 53 54 55 55 57 58 59 58 58 59 60 60 61 62 63 64 63 63 64 69 69 74 73 73 73 74 74 74 73 73 74 75 75 75 74 75 74 74 73 74 75 75 75 75 75 75 74 73 74 74 73 73 74 73 74 75 76 75 75 75 74 74 74 74 74 74 74 74 75 76 72 70
63 59 56 57 63 62 65 64 63 64 63 61 63 64 64 64 63 62 61 59 59 56 54 53 53 54 54 54 56 57 58 58 58 57 57 58 59 59 60 60 62 63 61 63 68 70 74 70 73 73 73 74 74 73 72 74 75 75 75 74 75 75 75 75 74 75 75 75 74 74 76 74 73 73 74 74 74 74 74 74 75 75 76 75 75 75 75 75 75 74 74 75 74 74 75 73 68
65 60 61 59 61 60 64 66 66 65 64 62 63 63 62 63 62 62 61 58 59 58 55 54 52 53 54 55 55 56 56 56 56 56 56 58 58 58 59 60 60 62 63 64 68 68 70 70 69 72 74 73 74 74 74 76 75 75 75 74 74 74 75 74 75 74 76 75 74 74 74 73 73 73 74 74 75 74 74 75 75 75 75 75 75 75 75 75 75 75 75 75 75 74 74 67 65
62 60 60 61 60 58 65 65 66 62 63 64 63 61 61 62 63 61 59 58 58 57 54 55 52 53 54 54 54 55 55 55 55 56 56 57 58 59 58 59 60 62 64 65 67 69 69 70 71 72 72 71 74 75 74 75 76 73 73 73 74 73 73 74 76 75 74 75 74 73 73 74 74 74 74 73 73 74 75 74 74 74 75 75 75 75 74 75 75 73 74 74 74 72 63 66 64
59 61 62 62 60 63 65 63 63 63 63 63 62 62 61 62 63 61 59 57 60 58 54 54 52 53 53 54 54 54 54 54 55 55 56 55 57 56 57 58 60 61 64 65 65 70 69 70 71 71 71 73 72 75 74 75 74 73 73 73 74 72 73 72 74 75 74 74 74 74 73 73 73 73 73 74 74 74 74 73 71 72 74 74 75 74 74 74 73 73 73 71 61 60 61 65 66
60 58 63 64 65 64 67 65 66 62 63 63 63 61 63 62 61 64 61 60 60 57 54 54 52 52 52 53 53 53 53 54 54 55 55 55 56 56 57 57 59 61 65 65 64 66 69 69 71 71 73 72 72 72 73 72 71 72 71 73 73 72 75 74 75 75 75 78 75 74 75 73 73 73 72 72 73 72 73 72 73 74 74 72 73 73 73 73 67 65 68 65 63 64 60 61 61
61 58 62 61 64 65 65 64 63 65 65 64 62 62 63 63 63 63 61 60 56 54 54 53 52 51 51 52 51 53 54 54 54 54 55 56 56 56 57 58 59 61 62 63 64 64 68 69 70 71 72 73 71 70 69 70 69 70 71 72 73 72 72 72 73 75 74 75 75 74 74 72 69 70 70 71 73 71 72 72 74 72 73 74 72 69 69 71 70 68 69 68 67 67 63 63 63
58 58 61 62 61 66 64 65 66 67 68 65 63 61 63 64 64 63 61 59 58 54 54 52 52 51 51 50 51 53 54 54 54 54 55 55 56 56 57 57 58 60 61 63 63 65 65 69 69 69 70 72 71 68 71 72 70 69 69 71 72 73 71 71 71 71 72 70 70 70 65 64 63 64 65 67 70 70 71 71 72 71 70 72 69 71 70 69 74 70 68 68 63 63 64 65 63
56 57 62 63 61 64 66 65 66 67 66 66 63 61 62 63 63 60 61 58 56 54 53 52 52 51 50 50 51 53 53 54 54 55 56 56 56 56 57 57 58 60 62 63 64 65 66 65 65 69 71 72 71 70 72 72 72 70 70 69 70 72 71 71 69 68 68 70 72 71 69 69 64 63 66 69 70 70 70 70 68 70 68 69 70 70 70 73 69 70 69 69 70 68 65 63 63
57 57 59 64 64 65 65 67 66 66 64 66 64 63 62 65 63 60 60 58 56 56 53 52 52 52 51 51 51 54 53 55 55 54 54 55 55 56 57 59 59 60 62 64 65 66 64 64 65 68 69 71 71 71 73 72 72 70 71 69 69 71 71 68 68 68 69 70 71 73 72 68 69 67 69 69 69 69 68 67 70 70 70 69 71 70 70 71 71 71 73 75 75 70 67 64 65
58 58 57 62 64 65 66 66 66 65 65 66 66 64 61 61 61 62 58 59 58 57 55 53 52 52 52 53 54 55 55 55 55 54 54 56 56 56 56 58 59 60 62 64 65 64 64 64 66 67 69 71 71 70 71 71 70 68 69 69 70 68 69 68 66 67 70 72 74 74 73 72 72 71 71 71 71 68 68 69 69 71 72 73 72 72 72 73 71 70 72 73 73 70 68 68 65
56 64 58 59 61 60 65 67 65 65 66 67 66 52 56 61 63 63 61 58 58 57 54 53 52 52 53 54 53 55 55 56 55 55 56 56 56 56 58 58 60 60 63 65 64 63 64 65 65 65 68 69 70 69 71 70 69 69 69 68 70 69 67 66 66 67 69 71 73 74 73 72 72 72 72 72 70 70 70 70 71 72 72 74 74 74 70 71 70 71 69 69 70 69 68 69 65
54 56 63 59 55 58 64 64 65 62 66 67 66 52 59 61 63 63 62 59 57 54 52 51 52 52 52 53 53 54 55 57 54 54 55 56 56 57 58 59 61 62 63 63 64 64 64 65 65 65 67 68 69 70 70 70 70 68 68 67 69 69 68 66 63 66 66 68 71 72 74 74 74 74 74 74 70 70 69 70 72 71 73 73 73 72 72 72 72 72 73 73 70 68 68 69 68
58 53 55 53 56 58 62 65 63 60 65 66 64 55 57 61 61 64 63 60 58 54 52 51 51 53 52 53 52 53 54 55 55 54 55 56 57 58 58 59 61 61 63 64 65 64 64 65 67 65 67 68 70 71 72 72 70 69 69 70 70 69 66 65 65 65 66 67 70 73 76 76 76 76 76 76 71 70 68 70 71 74 74 73 72 74 75 73 72 72 73 72 73 72 71 69 69
55 54 52 52 58 57 59 63 64 64 62 66 61 57 59 60 62 64 64 62 58 56 52 52 53 52 52 52 51 53 53 55 55 54 56 56 58 58 59 60 62 62 63 64 65 66 66 65 67 64 65 67 69 69 72 73 72 72 69 68 67 70 68 68 67 67 68 69 70 71 75 75 76 76 75 76 74 70 69 70 70 73 74 73 74 74 72 72 73 69 73 73 74 76 74 67 67
54 54 49 51 53 55 56 61 63 63 62 60 61 58 58 60 61 62 65 64 62 57 56 53 53 52 54 54 51 54 55 55 56 58 56 57 58 60 59 63 62 63 64 64 66 66 65 65 66 64 66 66 69 70 72 71 72 72 71 69 70 69 67 67 68 68 69 69 71 72 75 75 75 76 75 76 77 71 71 70 72 73 74 73 74 72 73 72 73 72 73 73 73 75 72 68 66
43 47 49 50 50 54 54 54 59 60 62 59 58 57 61 61 64 62 63 65 63 59 57 54 51 53 53 53 53 55 55 56 56 59 57 57 58 59 61 61 62 63 63 65 67 68 68 67 68 68 67 67 69 71 72 72 71 72 70 71 71 70 70 67 68 68 68 70 69 73 76 75 76 76 75 75 74 70 70 72 73 75 73 73 74 72 72 73 73 72 72 73 74 73 72 69 67
44 57 50 48 53 51 54 57 59 60 59 58 56 55 59 62 63 63 62 64 64 59 60 57 54 53 54 54 53 55 56 55 57 59 59 59 58 59 61 61 62 64 65 67 69 69 70 69 69 69 68 68 70 71 71 69 70 69 68 69 69 70 71 69 70 68 68 72 72 73 76 76 75 76 76 75 76 74 72 72 73 73 73 74 75 73 71 73 73 74 73 72 75 74 72 71 66
35 48 49 46 56 52 57 54 58 61 59 56 58 57 59 60 62 64 62 63 61 59 59 58 55 54 53 53 54 56 58 56 58 59 60 59 58 59 62 62 62 65 68 68 69 69 69 69 70 69 68 70 70 69 68 67 66 69 69 67 66 68 70 70 69 69 68 69 72 73 76 74 76 76 76 76 75 74 75 74 75 75 73 74 74 73 73 72 74 74 72 75 72 73 69 67 65
32 40 53 52 52 53 58 58 57 57 56 58 58 58 59 61 62 62 63 61 59 58 59 59 55 54 54 55 56 57 58 57 59 60 60 60 59 60 61 63 65 66 69 68 69 69 70 69 69 69 69 70 68 68 67 67 68 67 67 67 65 66 69 68 69 70 68 70 76 75 75 74 76 77 76 77 76 75 75 74 75 75 75 75 74 74 74 74 75 75 72 74 73 70 69 67 65
36 39 42 50 49 52 60 59 58 55 58 59 58 56 58 62 65 62 63 63 60 58 60 59 58 55 55 54 55 57 57 59 59 59 60 60 61 62 63 64 64 66 68 67 69 69 70 71 71 71 69 69 68 69 69 69 68 70 68 67 65 65 68 69 67 69 70 70 72 74 76 76 76 77 77 77 76 75 75 75 74 75 76 73 74 76 75 73 74 73 75 71 74 72 68 67 69
34 36 38 38 48 49 52 61 60 55 53 56 57 54 57 61 65 65 64 64 60 62 62 62 59 56 56 54 55 57 58 59 60 60 58 59 62 63 64 64 65 65 68 67 68 69 69 72 72 71 70 70 70 71 70 70 69 71 72 70 69 69 69 71 72 71 71 70 71 73 76 76 75 74 74 74 74 76 76 75 74 73 74 75 74 76 73 74 72 74 72 72 74 73 66 66 67
30 28 33 37 40 43 45 50 57 56 54 56 56 55 58 61 61 64 65 66 64 67 65 62 61 60 58 55 56 59 59 60 60 60 60 59 62 63 65 64 64 65 65 67 67 67 66 70 72 73 71 70 70 72 71 71 72 72 73 72 73 73 72 72 71 70 71 72 71 73 75 75 75 73 74 74 73 75 76 76 75 74 75 75 74 71 73 71 72 72 69 74 71 71 71 67 68
27 28 31 35 35 37 43 53 55 52 52 56 53 50 52 58 62 60 65 65 63 64 63 62 62 61 59 56 57 58 60 60 61 59 59 59 61 63 64 63 62 63 64 66 65 66 68 71 73 73 71 70 70 72 73 72 72 71 71 70 70 69 70 69 69 69 68 69 68 69 72 73 73 74 74 75 74 74 76 76 76 75 74 73 72 73 72 67 69 73 70 72 74 71 74 73 64
24 22 29 28 29 33 37 42 55 53 48 54 53 49 49 59 60 61 63 63 62 63 63 62 61 62 61 59 57 56 57 57 59 57 58 57 60 61 62 62 61 61 63 65 65 67 69 71 73 73 72 72 70 73 73 73 72 70 70 67 67 68 68 68 69 68 68 67 69 70 71 72 74 73 73 74 75 76 76 76 76 75 74 74 73 72 70 70 68 70 71 72 72 73 74 76 72
20 29 30 31 29 29 32 35 41 52 52 56 55 51 49 53 58 59 61 62 62 62 61 60 61 63 61 60 58 58 57 56 58 58 58 57 59 60 62 61 60 59 61 63 65 66 69 73 73 74 73 73 72 73 73 73 72 71 70 68 67 67 65 67 69 70 69 70 70 70 71 71 73 74 73 76 75 76 76 75 76 76 74 73 72 72 72 70 71 72 71 72 74 74 73 74 73
21 21 23 29 30 29 28 31 35 37 48 53 52 52 50 48 55 59 60 59 60 61 60 61 62 61 61 61 58 57 58 58 56 56 57 56 58 59 60 61 59 58 60 61 64 67 69 72 73 74 74 76 74 74 73 72 73 72 71 69 68 68 67 67 69 70 71 71 71 71 71 71 72 74 75 74 76 76 75 76 77 77 75 74 72 72 71 69 71 74 73 74 74 75 75 72 73
26 25 24 24 25 28 28 30 33 36 41 44 50 50 48 49 54 57 59 58 59 61 61 61 61 60 61 61 59 58 57 58 57 56 56 56 57 58 59 60 58 58 59 60 63 67 69 72 74 73 75 75 75 75 74 73 73 73 71 70 71 70 68 69 68 68 71 72 73 74 74 74 71 72 73 76 75 76 76 76 75 74 75 73 71 72 73 72 73 74 74 74 76 75 73 72 71
27 23 24 24 25 26 29 33 36 39 40 44 51 50 47 46 55 55 57 57 58 60 63 62 61 61 62 61 60 58 56 57 56 56 56 56 57 57 58 59 59 58 59 60 61 65 68 71 72 73 75 74 75 75 75 74 73 73 72 72 73 72 69 70 68 70 73 73 74 73 73 73 72 71 70 72 73 74 75 76 74 73 73 74 72 73 72 71 71 72 72 73 73 74 74 75 70
27 24 23 29 30 32 38 37 40 39 38 43 48 51 50 42 48 53 57 59 59 58 60 60 60 62 63 62 59 57 56 56 55 56 56 56 58 58 58 59 59 59 59 59 60 63 66 68 69 73 74 74 75 75 75 73 72 73 73 73 74 74 71 71 71 71 74 75 74 73 73 73 72 72 72 71 70 70 74 74 74 74 74 74 72 73 73 72 70 71 73 75 75 73 74 73 72
25 25 26 27 33 36 35 39 37 36 37 46 48 55 53 45 49 52 53 56 57 59 59 60 59 61 61 62 60 59 57 56 56 58 57 57 57 58 58 60 63 62 62 60 60 61 65 68 70 72 73 74 75 74 75 74 73 72 72 73 74 74 72 74 74 74 74 74 72 73 75 75 74 74 71 71 74 71 74 75 74 74 76 75 77 78 76 75 77 74 74 73 74 75 75 75 73
24 25 25 26 31 36 34 36 39 39 37 37 51 53 43 54 49 54 54 56 57 57 57 59 60 60 61 62 63 59 58 57 56 56 57 58 58 58 59 61 62 62 62 59 60 62 65 66 70 71 73 73 74 74 74 74 73 73 73 73 73 74 72 74 74 72 72 72 73 72 71 70 73 72 71 71 70 70 72 73 75 76 78 78 78 78 78 78 77 76 75 74 73 74 75 75 73
19 24 24 27 32 34 37 36 33 33 36 37 41 39 40 44 54 52 52 54 56 55 56 59 61 61 62 62 62 60 58 58 57 58 57 57 57 58 58 60 62 63 62 61 61 63 65 66 69 71 72 73 73 74 74 74 73 73 73 72 72 73 73 72 72 71 71 72 71 71 72 70 69 71 71 72 72 72 72 74 74 76 75 78 76 75 74 76 79 75 77 77 77 75 74 73 73
13 20 24 24 25 33 33 34 34 33 34 33 36 36 51 52 56 59 57 54 50 52 56 59 61 62 63 63 62 61 61 58 56 57 57 58 59 59 58 61 62 62 64 63 61 63 64 67 69 70 71 72 73 73 73 73 73 73 74 73 72 73 74 72 73 73 73 72 72 71 73 74 71 74 72 74 71 73 74 74 75 74 78 76 76 76 76 75 76 75 77 77 75 71 74 74 72
10 14 19 23 24 28 34 32 30 34 34 35 47 39 47 52 52 47 53 52 51 51 54 58 60 60 61 61 61 60 62 59 59 58 57 61 59 58 59 61 61 62 62 63 65 64 66 68 68 69 70 70 71 73 72 73 73 72 73 73 72 72 71 71 70 72 70 72 73 72 71 71 71 73 71 72 73 73 74 74 74 72 74 76 77 77 74 76 78 75 74 76 75 73 74 75 74
13 10 13 21 22 23 26 25 33 33 33 35 34 37 45 41 41 48 53 49 49 48 51 57 60 59 58 58 60 60 61 61 60 60 61 61 62 59 60 60 60 61 61 63 65 64 66 66 67 68 68 70 69 70 70 70 72 72 73 73 72 72 70 68 69 70 69 71 72 73 72 71 71 69 70 68 71 72 74 73 74 74 73 74 74 74 74 76 78 74 74 77 76 77 76 76 74
13 12 10 12 19 21 26 29 30 31 32 33 31 29 31 36 45 49 52 48 53 49 51 56 57 58 59 58 59 60 62 63 62 60 60 60 60 62 62 62 59 62 64 64 64 64 64 65 64 63 65 64 65 65 67 69 70 68 69 71 71 71 71 70 68 70 70 70 69 70 71 71 70 72 70 74 73 73 73 73 74 73 75 76 75 74 76 76 77 75 76 76 76 76 75 75 75
12 14 15 15 16 19 23 27 32 32 29 27 29 28 35 39 43 39 51 59 52 49 53 52 52 56 58 60 60 60 61 61 62 60 59 60 61 61 61 62 63 64 64 65 64 64 64 65 66 63 62 63 65 64 66 67 67 67 66 69 71 72 72 71 70 70 69 69 70 68 69 68 70 70 71 72 73 72 72 72 70 71 71 72 73 72 73 75 76 76 74 74 73 76 75 75 72
9 11 14 16 15 16 20 20 26 26 29 27 28 28 41 52 60 53 55 54 55 55 59 58 57 59 59 60 61 63 63 62 64 65 64 60 59 59 60 62 63 64 65 65 66 66 67 66 66 64 64 61 62 62 63 66 67 67 67 68 67 69 69 69 69 70 70 69 69 70 69 69 70 70 71 71 71 73 73 72 71 71 70 73 74 73 73 74 76 75 76 75 75 77 76 74 74
10 8 11 12 11 13 18 20 19 22 24 25 26 28 46 55 60 60 57 57 58 58 58 59 61 60 60 61 64 64 65 65 66 64 61 62 64 62 60 62 64 65 65 66 68 69 68 68 67 67 66 66 65 63 65 66 67 66 65 66 66 67 69 69 67 68 69 69 69 70 70 70 68 70 70 70 72 71 71 72 71 71 72 71 74 75 73 72 74 75 75 72 69 73 74 74 75